Regional Weather Roundup
Issued by NWS

Home | Current Version | Previous Version | Graphics & Text | Print | Product List | Glossary On
Versions: 1 2 3 4 5 6 7 8 9 10 11 12 13 14 15 16 17 18 19 20 21 22 23 24 25 26 27 28 29 30 31 32 33 34 35 36 37 38 39 40 41 42 43 44 45 46 47 48 49 50
820
ASUS43 KDMX 260406
RWRIA

WEATHER ROUNDUP FOR IOWA
NATIONAL WEATHER SERVICE DES MOINES IA
1100 PM CDT SAT MAR 25 2017

NOTE: "FAIR" INDICATES FEW OR NO CLOUDS BELOW 12,000 FEET WITH NO
SIGNIFICANT WEATHER AND/OR OBSTRUCTIONS TO VISIBILITY.

* - THESE STATIONS ARE NOT NWS STATIONS...THUS NOT UNDER NWS
QUALITY CONTROL.  THEY ALSO DO NOT REPORT WEATHER SUCH
AS PRECIPITATION OR FOG.

IAZ001>003-012>014-020>022-031>034-043>046-260500-
   NORTHWEST IOWA

CITY           SKY/WX    TMP DP  RH WIND       PRES   REMARKS
CARROLL *      CLOUDY    39  39 100 NE9       29.93F FOG     WCI  33
CHEROKEE *     CLOUDY    38  38 100 NE6       29.97S FOG     WCI  33
LE MARS *      CLOUDY    39  37  93 NE9       29.97F WCI  33
ORANGE CITY *  CLOUDY    37  37 100 E8        29.95F FOG     WCI  31
SHELDON *      CLOUDY    37  37 100 E12       29.95F FOG     WCI  30
SIOUX CITY     CLOUDY    39  38  96 E10       29.96F WCI  32
SPENCER        CLOUDY    38  37  97 NE12      29.97F WCI  30
STORM LAKE *   CLOUDY    37  37 100 E10       29.95F FOG     WCI  30
$$

IAZ055>058-069>071-079>083-090>094-260500-
   SOUTHWEST IOWA

CITY           SKY/WX    TMP DP  RH WIND       PRES   REMARKS
ATLANTIC *     CLOUDY    41  41 100 NE7       29.92F
AUDUBON *      CLOUDY    39  37  93 NE7       29.93F FOG     WCI  34
CLARINDA *     CLOUDY    43  43 100 N8        29.93F
COUNCIL BLFS * CLOUDY    39  39 100 NE9       29.92F FOG     WCI  33
CRESTON *      CLOUDY    41  41 100 N8        29.91F FOG
HARLAN  *      LGT RAIN  39  39 100 N8        29.96F WCI  34
LAMONI         CLOUDY    42  41  96 N7        29.89R
RED OAK *      CLOUDY    41  41 100 N6        29.92F FOG
SHENANDOAH *   CLOUDY    41  41 100 N8        29.92F FOG
$$

IAZ047>049-059>061-072>074-084-260500-
   CENTRAL IOWA

CITY           SKY/WX    TMP DP  RH WIND       PRES   REMARKS
AMES           CLOUDY    40  40 100 N8        29.92S WCI  34
ANKENY *       CLOUDY    41  41 100 N9        29.92S FOG
BOONE *        CLOUDY    39  39 100 NE8       29.91F FOG     WCI  34
CHARITON *     FOG       43  43 100 N10       29.88S VSB 1/2
DES MOINES     CLOUDY    43  42  97 NE10      29.91S FOG
GRINNELL*      FOG       42  41  97 NE9       29.89F VSB 3/4
MARSHALLTOWN   CLOUDY    40  40 100 NE10      29.90F FOG     WCI  33
NEWTON *       FOG       41  41 100 NE10      29.89S VSB 3/4
PELLA *        FOG       43  42  99 N5        29.90R VSB 3/4
PERRY *        CLOUDY    41  40  97 N6        29.92F FOG
$$

IAZ004>006-015-016-023>025-035-036-260500-
   NORTH CENTRAL IOWA

CITY           SKY/WX    TMP DP  RH WIND       PRES   REMARKS
ALGONA *       CLOUDY    39  39 100 E8        29.96S WCI  34
CLARION *      CLOUDY    37  37 100 E13       29.94F FOG     WCI  29
ESTHERVILLE    CLOUDY    36  36 100 NE10      29.97S FOG     WCI  28
FORT DODGE *   CLOUDY    37  36  93 NE6       29.95F WCI  33
MASON CITY     CLOUDY    37  36  96 NE9       29.97S FOG     WCI  30
FOREST CITY *  CLOUDY    36  36 100 E6        29.96S FOG     WCI  31
WEBSTER CITY * CLOUDY    39  37  93 NE7       29.91F FOG     WCI  34
IOWA FALLS *   LGT RAIN  39  38  97 NE9       29.94S WCI  33
$$

IAZ007>011-017>019-026>030-037>042-050>054-066-260500-
   NORTHEAST IOWA

CITY           SKY/WX    TMP DP  RH WIND       PRES   REMARKS
CEDAR RAPIDS   LGT RAIN  42  42 100 NE12      29.87F FOG
CHARLES CITY * CLOUDY    37  37 100 E16       29.95F FOG     WCI  28
CLINTON *      CLOUDY    43  42  97 E16       29.91S
DECORAH *      CLOUDY    37  37 100 E12       29.96F FOG     WCI  30
DUBUQUE        LGT RAIN  40  40 100 NE16      29.93F VSB 1   WCI  31
MONTICELLO *   CLOUDY    41  41 100 E7G15     29.91F FOG
OELWEIN *      LGT RAIN  39  39 100 NE15G22   29.92F WCI  31
WATERLOO       CLOUDY    40  39  97 NE10      29.93F FOG     WCI  33
$$

IAZ064-065-067-068-078-260500-
   EAST CENTRAL IOWA

CITY           SKY/WX    TMP DP  RH WIND       PRES   REMARKS
DAVENPORT      LGT RAIN  45  43  93 E14       29.89F FOG
IOWA CITY      CLOUDY    45  43  93 NE10      29.89F
MUSCATINE *    CLOUDY    48  46  93 NE10G17   29.87F FOG
QUAD CITIES    CLOUDY    48  45  89 NE13      29.88F FOG
$$

IAZ062-063-075>077-085>089-095>099-260500-
   SOUTHEAST IOWA

CITY           SKY/WX    TMP DP  RH WIND       PRES   REMARKS
BURLINGTON     CLOUDY    58  58 100 E9        29.82F
FAIRFIELD *    CLOUDY    48  48 100 NE14      29.83F FOG
FORT MADISON * CLOUDY    57  57 100 E7        29.82S
KEOKUK *       CLOUDY    57  57 100 E7        29.80S
OSKALOOSA *    LGT RAIN  45  45  99 N9        29.86F VSB 1/2
OTTUMWA        FOG       47  47 100 N8        29.85F VSB 1/4
WASHINGTON *   CLOUDY    46  46 100 NE15      29.86F FOG
$$

ABBREVIATIONS USED IN REMARKS
   TC - TEMPERATURES IN CELSIUS
  WCI - WIND CHILL INDEX
   HX - HEAT INDEX
  VSB - VISIBILITY
$$





USA.gov is the U.S. government's official web portal to all federal, state and local government web resources and services.